Flag for Germany Weather past 2 weeks in Mülheim, North Rhine-Westphalia, Germany

Now
63 °F

Fog.


Feels Like: 63 °F
Forecast: 61 / 80 °F
Wind: 3 mph from North

Location: Koeln / Bonn

Current Time: Jul 23, 2014 at 4:19:17 AM

Latest Report: Jul 23, 2014 at 3:50 AM


Visibility: N/A

Pressure: 30.07 "Hg

Humidity: 94%

Dew point: 61 °F

Location of MülheimLocation

Historic Weather in Mülheim — Graph

°F

Mülheim temperature yesterday

Maximum temperature yesterday: 82 °F (at 2:50 PM)
Minimum temperature yesterday: 66 °F (at 12:20 AM)
Average temperature yesterday: 73 °F

Past Weeks' High & Low Weather Summary

 TemperatureHumidityPressure
High91 °F (Jul 19, 2:50 PM)100% (Jul 8, 6:20 AM)30.18 "Hg (Jul 8, 6:20 AM)
Low54 °F (Jul 8, 10:20 PM)26% (Jul 19, 2:50 PM)29.65 "Hg (Jul 9, 5:20 PM)
Average68 °F77%29.93 "Hg
* Reported Jul 8 3:20 AM — Jul 23 3:20 AM, Mülheim, Weather by CustomWeather, © 2014

Note: Actual official high and low records may vary slightly from our data, if they occured in-between our weather recording intervals... More about our weather records

Advertising

Mülheim weather history for previous 24 hours

 ConditionsComfort  
Time TempWeatherWind HumidityBarometerVisibility
3:20 AM
Jul 23
64 °FFog.5 mph94%30.07 "HgN/A
2:50 AM64 °FFog.2 mph94%30.07 "HgN/A
2:20 AM64 °FFog.2 mph88%30.07 "HgN/A
1:50 AM64 °FFog.2 mph94%30.07 "HgN/A
6:50 PM
Jul 22
79 °FPartly sunny.12 mph61%30.01 "HgN/A
6:20 PM79 °FPartly sunny.10 mph61%30.01 "HgN/A
5:50 PM81 °FPartly sunny.13 mph54%30.01 "HgN/A
5:20 PM81 °FPartly sunny.12 mph58%30.01 "HgN/A
4:50 PM82 °FPartly sunny.14 mph55%30.01 "HgN/A
4:20 PM82 °FPartly sunny.12 mph58%30.01 "HgN/A
3:50 PM82 °FPartly sunny.12 mph55%30.01 "HgN/A
3:20 PM81 °FPartly sunny.10 mph58%30.01 "HgN/A
2:50 PM82 °FPartly sunny.9 mph58%30.01 "HgN/A
2:20 PM81 °FPartly sunny.9 mph54%30.01 "HgN/A
1:50 PM81 °FPartly sunny.7 mph58%30.01 "HgN/A
1:20 PM79 °FPartly sunny.7 mph61%30.01 "HgN/A
12:50 PM77 °FPartly sunny.7 mph65%30.01 "HgN/A
12:20 PM77 °FScattered clouds.7 mph65%30.01 "HgN/A
11:50 AM75 °FScattered clouds.8 mph69%30.01 "HgN/A
11:20 AM75 °FScattered clouds.8 mph69%30.01 "HgN/A
10:50 AM73 °FScattered clouds.8 mph78%30.01 "HgN/A
10:20 AM72 °FPartly sunny.8 mph83%30.01 "Hg5 mi
9:50 AM72 °FBroken clouds.9 mph83%30.01 "Hg5 mi
9:20 AM70 °FPartly sunny.9 mph88%30.01 "Hg4 mi
8:50 AM70 °FFog.8 mph88%30.01 "Hg3 mi
8:20 AM68 °FFog.8 mph100%29.98 "Hg1 mi
7:50 AM68 °FFog.9 mph100%29.98 "Hg1 mi
7:20 AM68 °FFog.8 mph100%29.98 "Hg1 mi
6:50 AM66 °FFog.7 mph100%29.98 "Hg1 mi
6:20 AM66 °FFog.6 mph100%29.98 "Hg1 mi
5:50 AM66 °FFog.7 mph100%29.98 "Hg1 mi
5:20 AM66 °FFog.9 mph100%29.98 "Hg1 mi
4:50 AM66 °FFog.8 mph100%29.98 "Hg1 mi
4:20 AM66 °FFog.8 mph100%29.98 "Hg1 mi
Weather by CustomWeather, © 2014

See weather overviewHow to use our weather pages